Regional Weather Roundup
Issued by NWS Green Bay, WI

Home | Current Version | Previous Version | Graphics & Text | Print | Product List | Glossary Off
Versions: 1 2 3 4 5 6 7 8 9 10 11 12 13 14 15 16 17 18 19 20 21 22 23 24 25 26 27 28 29 30 31 32 33 34 35 36 37 38 39 40 41 42 43 44 45 46 47 48 49 50

000
ASUS43 KGRB 230510
RWRGRB

NORTH-CENTRAL AND NORTHEAST WISCONSIN REGIONAL WEATHER ROUNDUP
NATIONAL WEATHER SERVICE GREEN BAY WI
1200 AM CDT WED JUL 23 2014

WIZ005-009-010>012-018-019-230600-
NORTH CENTRAL WISCONSIN

CITY           SKY/WX    TMP DP  RH WIND       PRES   REMARKS
IRONWOOD       NOT AVBL
MANITOWISH WTR FOG       52  52 100 CALM      30.15R VSB 1
ARBOR VITAE    CLEAR     57  54  90 N3        30.15R
EAGLE RIVER    FOG       55  55 100 CALM      30.14R VSB 1/2
LAND O LAKES   FOG       52  51  99 CALM      30.15S VSB 3/4
RHINELANDER    CLEAR     58  56  93 CALM      30.15R
PHILLIPS       CLEAR     59  57  92 CALM      30.15R
ANTIGO         CLEAR     58  57  95 N6        30.13R
TOMAHAWK       PTCLDY    57  55  94 CALM      30.14S
MERRILL        PTCLDY    59  58  95 CALM      30.13R
$$

WIZ013-073-230600-
NORTHEAST WISCONSIN

CITY           SKY/WX    TMP DP  RH WIND       PRES   REMARKS
IRON MOUNTAIN  CLEAR     58  55  90 NW7       30.10R
MARINETTE      CLEAR     63  54  72 N8        30.07R
OCONTO         CLEAR     63  56  76 NW5       30.08R
$$

WIZ017-030-035>037-045-230600-
CENTRAL WISCONSIN

CITY           SKY/WX    TMP DP  RH WIND       PRES   REMARKS
MEDFORD        CLEAR     60  57  89 N6        30.14R
WAUSAU         PTCLDY    64  58  80 N8        30.11R
MOSINEE        PTCLDY    63  59  88 N8        30.13R
MARSHFIELD     CLEAR     65  57  75 N9        30.12R
WISC RAPIDS    CLEAR     67  59  75 NE10      30.12R
STEVENS POINT  PTCLDY    63  57  82 N9        30.11R
WAUPACA        CLEAR     67  60  76 N5        30.10R
SHAWANO        CLEAR     67  57  71 N13       30.10R
CLINTONVILLE   CLEAR     64  55  72 N9        30.09R
$$

WIZ038-039-048-051-230600-
FOX VALLEY

CITY           SKY/WX    TMP DP  RH WIND       PRES   REMARKS
NWS GREEN BAY  CLEAR     65  56  72 N10       30.08R
APPLETON       CLEAR     64  54  68 N16       30.09R
OSHKOSH        CLEAR     69  58  67 N14G26    30.08R
FOND DU LAC    PTCLDY    69  59  70 N14G23    30.08R
$$

WIZ022-050-052-230600-
EAST CENTRAL WISCONSIN

CITY           SKY/WX    TMP DP  RH WIND       PRES   REMARKS
STURGEON BAY   CLEAR     64  54  68 N17       30.07R
MANITOWOC      CLOUDY    66  57  72 NE10      30.08R
SHEBOYGAN      MOCLDY    68  59  73 NE12      30.06R
$$

LMZ563-521-522-541>543-230600-
LAKESHORE

STATION/POSITION TIME  TEMP    WIND        PRES    VSBY  WAVE
                       AIR SEA DIR/SP/G                  HT/PER
                 (UTC) (F)     (DEG/KT/KT) (MB)    (MI)  (FT/S)
SHEBOYGAN LKSHOR 0500   56      20/ 12/ 12 1018.4R
KEWAUNEE LKSHORE 0500   55      20/  7/  8 1019.0R
NORTHPORT PIER   0500   65     350/ 17/ 21 1017.9S
N MID LAKE BUOY  0500   57 53  340/  8/ 10 1017.1R         3/ 5
CHAMBERS ISLAND  0500   65     350/  9/ 12 1018.3S
MENOMINEE LKSHOR 0500   58     340/ 12/ 13 1018.9R
$$



USA.gov is the U.S. government's official web portal to all federal, state and local government web resources and services.